Weather observations for the past three days for
Santa Maria Public Airport/Capt G Allan Hancock Field
Imperial (Metric)
Date Time (pdt) Wind (mph) Vis. (mi.) Weather Sky Cond. Temperature (ºF) Relative Humidity Wind Chill (°F) Heat Index (°F) Pressure Precipitation (in)
Air Dwpt 6 hour altimeter (in) sea level (mb) 1 hr 3 hr 6 hr
Max. Min.
17 21:49 NW 7 1.75 Fog/Mist OVC002 55.9 55.9 100% 29.99 1015.8
17 20:51 NW 7 7.00 Overcast OVC003 57 57 100% 29.99 1015.7
17 19:51 NW 8 5.00 Fog/Mist OVC007 57.9 57 97% 29.98 1015.3
17 18:51 W 10 10.00 A Few Clouds FEW005 62.1 57 84% 29.97 1015.0
17 17:51 W 13 10.00 Fair CLR 64.9 57 76% 29.97 1015.0
17 16:51 NW 12 10.00 Fair CLR 69.1 57 72 68 66% 29.98 1015.3
17 15:51 NW 10 10.00 Fair CLR 69.1 57 66% 30 1015.8
17 14:51 W 9 10.00 Fair CLR 68 57 68% 30.01 1016.3
17 13:51 NW 13 10.00 Fair CLR 69.1 57 66% 30.02 1016.8
17 12:51 W 10 10.00 Fair CLR 70 57 64% 30.03 1017.1
17 11:51 NW 9 10.00 Fair CLR 72 57.9 61% 30.03 1017.0
17 10:51 Vrbl 7 10.00 A Few Clouds FEW010 68 57 68 50 68% 30.03 1016.9
17 09:51 SW 5 10.00 Partly Cloudy SCT009 63 55.9 78% 30.02 1016.8
17 08:51 W 3 10.00 Partly Cloudy SCT009 60.1 55.9 86% 30.02 1016.8
17 07:51 S 8 3.00 Fog/Mist BKN002 54 54 100% 30.02 1016.8
17 06:51 Calm 10.00 Partly Cloudy SCT005 53.1 53.1 100% 30.01 1016.4
17 05:51 S 3 10.00 Fair CLR 50 50 100% 29.99 1015.8
17 04:51 Calm 10.00 Fair CLR 51.1 51.1 57 51.1 100% 29.98 1015.5
17 03:51 S 3 10.00 Fair CLR 52 51.1 97% 29.98 1015.2
17 02:51 Calm 10.00 Fair CLR 53.1 52 96% 29.99 1015.6
17 01:51 Calm 10.00 Fair CLR 54 54 100% 29.99 1015.7
17 00:51 SW 3 10.00 Fair CLR 55 54 96% 30 1016.1
16 23:51 W 3 10.00 Fair CLR 55 55 100% 30.01 1016.2
16 22:51 W 7 10.00 Fair CLR 57 55 69.1 57 93% 30.01 1016.3
16 21:51 W 6 10.00 Fair CLR 57 55.9 96% 30.01 1016.4
16 20:51 W 8 10.00 Fair CLR 57.9 55 90% 30.01 1016.3
16 19:51 W 14 10.00 Fair CLR 61 55 81% 30.01 1016.3
16 18:51 NW 12 10.00 Fair CLR 64.9 55.9 73% 30 1016.0
16 17:51 W 15 10.00 Fair CLR 66.9 55.9 68% 30 1015.9
16 16:51 NW 15 10.00 Fair CLR 69.1 55.9 72 69.1 63% 30.01 1016.3
16 15:51 NW 16 10.00 Fair CLR 70 55.9 61% 30.02 1016.7
16 14:51 W 15 10.00 Fair CLR 71.1 57 61% 30.03 1017.1
16 13:51 W 15 G 24 10.00 Fair CLR 71.1 57 61% 30.04 1017.4
16 12:51 W 14 10.00 A Few Clouds FEW005 71.1 57 61% 30.05 1017.7
16 11:51 NW 10 10.00 Fair CLR 72 57 59% 30.05 1017.8
16 10:51 W 6 10.00 Fair CLR 72 57.9 72 54 61% 30.05 1017.5
16 09:51 Vrbl 3 10.00 Fair CLR 66.9 57 71% 30.05 1017.6
16 08:51 Vrbl 3 10.00 A Few Clouds FEW005 63 57 81% 30.04 1017.4
16 07:51 Calm 10.00 A Few Clouds FEW005 59 57 93% 30.04 1017.4
16 06:51 SE 3 10.00 Mostly Cloudy BKN005 55.9 55.9 100% 30.03 1017.0
16 05:51 Calm 7.00 Mostly Cloudy BKN006 55 54 96% 30.02 1016.8
16 04:51 S 3 10.00 A Few Clouds FEW006 54 53.1 57 54 97% 30.01 1016.3
16 03:51 Calm 10.00 Fair CLR 55 54 96% 30 1016.1
16 02:51 Calm 10.00 Fair CLR 55.9 54 93% 30.01 1016.3
16 01:51 Calm 10.00 Fair CLR 55.9 55 97% 30.01 1016.4
16 00:51 NW 3 10.00 Fair CLR 55.9 55 97% 30.01 1016.4
15 23:51 W 6 10.00 Fair CLR 57 55.9 96% 30.02 1016.6
15 22:51 W 5 10.00 Fair CLR 57 55.9 68 57 96% 30.02 1016.7
15 21:51 W 10 10.00 Fair CLR 57.9 55 90% 30.01 1016.5
15 20:51 W 8 10.00 Fair CLR 59 55 87% 30 1016.1
15 19:51 NW 9 10.00 Fair CLR 60.1 55 84% 29.99 1015.9
15 18:51 NW 13 10.00 Fair CLR 64 55 73% 30 1016.1
15 17:51 NW 15 10.00 Fair CLR 66.9 55.9 68% 30 1016.0
15 16:51 W 15 10.00 Fair CLR 68 55.9 71.1 61 65% 30 1016.1
15 15:51 NW 12 G 22 10.00 A Few Clouds FEW050 70 55.9 61% 30.02 1016.6
15 14:51 W 10 10.00 Fair CLR 69.1 57.9 68% 30.04 1017.2
15 13:51 W 14 G 21 10.00 Fair CLR 69.1 57.9 68% 30.05 1017.8
15 12:51 W 7 10.00 Fair CLR 68 57.9 70% 30.07 1018.2
15 11:51 W 8 10.00 A Few Clouds FEW009 64.9 57.9 78% 30.08 1018.7
15 10:51 Vrbl 6 7.00 Overcast OVC006 61 57 61 55 87% 30.09 1019.2
15 09:51 NW 3 7.00 Overcast OVC005 59 57 93% 30.1 1019.4
15 08:51 NW 5 4.00 Fog/Mist OVC004 57 55.9 96% 30.11 1019.7
15 07:51 W 6 3.00 Fog/Mist OVC003 55 55 100% 30.1 1019.5
15 06:51 Calm 3.00 Fog/Mist OVC003 55.9 55.9 100% 30.08 1018.9
15 05:51 Calm 3.00 Fog/Mist OVC003 55.9 55.9 100% 30.07 1018.4
15 04:51 W 3 7.00 Overcast OVC004 55.9 55.9 57 55 100% 30.06 1018.1
15 03:51 NW 3 8.00 Overcast OVC005 55.9 55.9 100% 30.06 1018.0
15 02:51 W 7 9.00 Overcast OVC006 57 57 100% 30.06 1018.1
15 01:51 W 8 9.00 Overcast OVC008 57 55.9 96% 30.06 1018.1
15 00:51 Calm 10.00 Fair CLR 57 55.9 96% 30.06 1018.2
14 23:51 Calm 10.00 Partly Cloudy SCT009 57 55.9 96% 30.06 1018.0
14 22:51 Calm 9.00 Fair CLR 57 55.9 68 57 96% 30.06 1018.1
Date Time (pdt) Wind (mph) Vis. (mi.) Weather Sky Cond. Air Dwpt Max. Min. Relative Humidity Wind Chill (°F) Heat Index (°F) altimeter (in) sea level (mb) 1 hr 3 hr 6 hr
6 hour
Temperature (ºF) Pressure Precipitation (in)